Location: Bottens
(46.6171°N, 6.6605°E)
Time: 08:41:07
(UTC+00:00)

Cosmos 1825 - Pass Details

Date: 26 October 2021
Orbit: 501 x 504 km, 82.5° (Epoch: 28 November)

Event Time Altitude Azimuth Distance (km) Brightness Sun altitude
Rises 18:53:00 0° 345° (NNW) 2,608 6.1 -25.6°
Reaches altitude 10° 18:55:11 10° 339° (NNW) 1,719 5.2 -25.9°
Enters shadow 18:58:10 41° 296° (WNW) 747 3.4 -26.5°
